STARLINK-31886, 59662

Orbit data source: Space-Track

STARLINK-31886, 59662 is a payload satellite owned by SpaceX/Seattle (US) in LEO that was launched on Mon, 06 May 2024 UTC via an FALCON 9 launch vehicle from the Air Force Eastern Test Range (AFETR). Payload-class satellites include a variety of spacecraft equipped with specific instruments for various scientific and technological missions. These include communications satellites like Starlink; space stations such as the ISS; scientific satellites like the Hubble; Earth observation satellites from companies like Planet Labs, Umbra, and HawkEye 360; GPS; miniature CubeSats for education and research; and military/defense satellites.

Loading next visibility...
Identifier
59662, 2024-084J
Orbit
LEO
Country
Flag of USUS
Related business
Manufacturer
SpaceX/Seattle
Mission
Operational Commercial Communications
Bus & Motor
STARLINK V2M, Unknown motor
Mass
730 kg wet, ~700 kg dry
Launch date (UTC)
2024-05-06 (2 years ago)
Launch vehicle
FALCON 9
Launch site
Air Force Eastern Test Range (AFETR)
Object type
Payload
Rocket body
Debris
Shape & HBR
Box + 2 Pan, 17.7 m
Radar Cross Section
33.884 m², Large (>1 m²)

Expand to show TLE details & history
Last TLE update: 1 day ago

TLE from 1 day ago
0 STARLINK-31886
1 59662U 24084J   25347.78667016  .00001493  00000-0  63757-4 0  9997
2 59662  42.9998 167.0812 0001341 266.0242  94.0456 15.27582888 91234
Epoch: 2025-12-13T18:52Z
TLE epoch observation values (Epoch: 2025-12-13T18:52:48.301Z)
Latitude
-0.00006°
Longitude
161.17095°
Altitude
482.881 km
Speed
7.626 km/s
True Right ascension
11h 08m 19s
True Declination
0° 00' 00"
Sunlit
Object was in daylight at epoch
Visualization orbit readout
Latitude
Unknown
Longitude
Unknown
Altitude
Unknown
Speed
Unknown
Apparent Right ascension
Unknown
Apparent Declination
Unknown
Sunlit
N/A
Visualization observer readout
Local Sidereal Time
19:44:21
Azimuth
Unknown
Elevation
Unknown
Doppler factor
Unknown
Orbital elements
Apogee altitude
485.906 km
Perigee altitude
484.065 km
Semi-major axis
6,863.123 km
Eccentricity
0.00013
Inclination
42.9998°
RAAN
167.0812°
Arg. of periapsis
266.0242°
True anomaly
94.06093°
Mean anomaly
94.0456°
Eccentric anomaly
94.05326°
Mean motion
3.81734 °/min
Orbital period
94.31 mins
BSTAR
0.000063757
Loading maneuver chart data...
Computing Atmospheric mass density...
Loading historical data...
Loading historical data...
Loading historical data...
Loading historical data...
Loading historical data...
Loading historical data...
Loading historical data...

Documentation

Showing up to 5 results
|